Bettles Field, AK

10:15 PM AKDT on July 20, 2017 (GMT -0800)
Bettles | | Change Station

Elev 643 ft 66.92 °N, 151.53 °W | Updated 22 minutes ago

Overcast
Overcast
63 °F
Feels Like 63 °F
N
4
Wind Variable Wind from NNW

Today
High -- | Low -- °F
--% Chance of Precip.
Yesterday
High -- | Low -- °F
Precip. -- in
Pressure 29.74 in
Visibility 10.0 miles
Clouds Mostly Cloudy 7500 ft
Mostly Cloudy 9000 ft
Overcast 11000 ft
Dew Point 54 °F
Humidity 72%
Rainfall 0.07 in
Snow Depth Not available.
3:44 AM 0:35 AM
Waning Crescent, 7% visible
METAR PABT 210553Z 34003KT 10SM BKN075 BKN090 OVC110 17/12 A2973 RMK AO2 RAE09 SLP071 CB DSNT S MOV S SHRA DSNT S P0000 60007 T01720122 10233 20150 51010 $
Pressure 29.74 in
Visibility 10.0 miles
Clouds Mostly Cloudy 7500 ft
Mostly Cloudy 9000 ft
Overcast 11000 ft
Dew Point 54 °F
Humidity 72%
Rainfall 0.07 in
Snow Depth Not available.
3:44 AM 0:35 AM
Waning Crescent, 7% visible
METAR PABT 210553Z 34003KT 10SM BKN075 BKN090 OVC110 17/12 A2973 RMK AO2 RAE09 SLP071 CB DSNT S MOV S SHRA DSNT S P0000 60007 T01720122 10233 20150 51010 $

Get Severe Weather Alerts

Thanks for signing up!

Be on the lookout for a verification email in your inbox.

You'll start receiving the daily forecast at 6 AM.

×

10-Day Weather Forecast

Almanac

Astronomy

Jul. 20, 2017 Rise Set
Actual Time
Civil Twilight
Nautical Twilight
Astronomical Twilight
Moon
Length of Visible Light
Length of Day
Tomorrow will be .
, % of the Moon is Illuminated

Today's Extremes

State Highs State Lows

Community

WunderPhotos

Category 6

Welcome to Category 6. This is the collective home for Weather Underground's featured writeups by Dr. Jeff Masters (right), Bob Henson (left), Chris Burt, and other regular contributors.

Nearby

Air Quality

  Air Quality AQ Index Pollutant
Not available.

Snow Depth

Station Depth Elevation

Earthquake Activity

City Distance Mag. Time & Date
Minimum magnitude displayed is 2.5.

Coastal Water Temperatures

Place Temperature

Stations

Nearby Weather Stations

Station Location Temp. Windchill Dew Point Humidity Wind Precip. Elev Updated Type
                   

Watches & Warnings

There are currently no watches in effect.